Find Starlink 30885

NORAD ID: 58361 Int'l Des: 2023-177 Owner: SPXS Country: US Constellation: starlink operational
LEOCIRCULAR

リアルタイム位置

3D地球を読み込み中...

Starlink 30885について

説明を読み込み中...

次回通過

Passes for default location (London). Set your location on the main map for personalized predictions.

高度履歴

Loading altitude history...

軌道要素

1 58361U 23177L 26120.83524560 .00002500 00000-0 10032-3 0 9993
2 58361 43.0025 56.0056 0001372 267.7963 92.2732 15.27583868136215
Epoch: Apr 30, 2026 • Age: 10 hours

現在のステータス

高度 486.7 km
速度 7.62 km/s
衛星直下点 -19.01°S, 59.6°W
打ち上げ日 Nov 18, 2023
運用期間 2.4 years
タイプ internet

技術仕様

分類 Payload
質量 730.00 kg
乾燥質量 700.00 kg
総質量 730.00 kg
長さ 0.30 m
直径 4.10 m
スパン 29.00 m
形状 Box + pan
製造者 SPXS
バスタイプ Starlink V2M
フェーズステータス In Orbit
所有者/国 SPXS/US

Most Searched